owner,sensor,date,latitude,longitude,vertical_datum,direction_of_sea_water_velocity,sea_water_speed,upward_sea_water_velocity,qcFlag 
COMPS,ioos:station:USF.COMPS:C10:1,2011-11-01T00:00:00Z,27.1690,-82.9260,4.0,186.34019174591,9.0553851381374,-99999.0,'1111122,1111122,1199999999' 
COMPS,ioos:station:USF.COMPS:C10:1,2011-11-01T01:00:00Z,27.1690,-82.9260,4.0,167.47119229085,9.2195444572929,-99999.0,'1111122,1111122,1199999999' 
COMPS,ioos:station:USF.COMPS:C10:1,2011-11-01T02:00:00Z,27.1690,-82.9260,4.0,149.03624346793,5.8309518948453,-99999.0,'1111122,1111122,1199999999' 
COMPS,ioos:station:USF.COMPS:C10:1,2011-11-01T03:00:00Z,27.1690,-82.9260,4.0,168.69006752598,5.0990195135928,-99999.0,'1111122,1111122,1199999999' 
COMPS,ioos:station:USF.COMPS:C10:1,2011-11-01T04:00:00Z,27.1690,-82.9260,4.0,144.46232220803,8.6023252670426,-99999.0,'1111122,1111122,1199999999' 
COMPS,ioos:station:USF.COMPS:C10:1,2011-11-01T05:00:00Z,27.1690,-82.9260,4.0,167.47119229085,9.2195444572929,-99999.0,'1111122,1111122,1199999999' 
COMPS,ioos:station:USF.COMPS:C10:1,2011-11-01T08:00:00Z,27.1690,-82.9260,4.0,33.69006752598,28.844410203712,-99999.0,'1111122,1111122,1199999999' 
COMPS,ioos:station:USF.COMPS:C10:1,2011-11-01T09:00:00Z,27.1690,-82.9260,4.0,33.69006752598,28.844410203712,-99999.0,'1111122,1111122,1199999999' 
COMPS,ioos:station:USF.COMPS:C10:1,2011-11-01T10:00:00Z,27.1690,-82.9260,4.0,0.0,0.0,-99999.0,'1114422,1114422,1199999999' 
COMPS,ioos:station:USF.COMPS:C10:1,2011-11-01T13:00:00Z,27.1690,-82.9260,4.0,191.30993247402,15.297058540778,-99999.0,'1111122,1111122,1199999999' 
COMPS,ioos:station:USF.COMPS:C10:1,2011-11-01T14:00:00Z,27.1690,-82.9260,4.0,192.52880770915,9.2195444572929,-99999.0,'1111122,1111122,1199999999' 
COMPS,ioos:station:USF.COMPS:C10:1,2011-11-01T15:00:00Z,27.1690,-82.9260,4.0,192.52880770915,9.2195444572929,-99999.0,'1111122,1111122,1199999999' 
COMPS,ioos:station:USF.COMPS:C10:1,2011-11-01T16:00:00Z,27.1690,-82.9260,4.0,156.80140948635,7.6157731058639,-99999.0,'1111122,1111122,1199999999' 
COMPS,ioos:station:USF.COMPS:C10:1,2011-11-01T17:00:00Z,27.1690,-82.9260,4.0,144.46232220803,8.6023252670426,-99999.0,'1111122,1111122,1199999999' 
COMPS,ioos:station:USF.COMPS:C10:1,2011-11-01T18:00:00Z,27.1690,-82.9260,4.0,156.03751102542,9.8488578017961,-99999.0,'1111122,1111122,1199999999' 
COMPS,ioos:station:USF.COMPS:C10:1,2011-11-01T19:00:00Z,27.1690,-82.9260,4.0,151.38954033403,12.529964086142,-99999.0,'1111122,1111122,1199999999' 
COMPS,ioos:station:USF.COMPS:C10:1,2011-11-01T20:00:00Z,27.1690,-82.9260,4.0,163.30075576601,10.440306508911,-99999.0,'1111122,1111122,1199999999' 
COMPS,ioos:station:USF.COMPS:C10:1,2011-11-01T21:00:00Z,27.1690,-82.9260,4.0,175.23635830927,12.041594578792,-99999.0,'1111122,1111122,1199999999' 
COMPS,ioos:station:USF.COMPS:C10:1,2011-11-01T22:00:00Z,27.1690,-82.9260,4.0,167.47119229085,9.2195444572929,-99999.0,'1111122,1111122,1199999999' 
COMPS,ioos:station:USF.COMPS:C10:1,2011-11-01T23:00:00Z,27.1690,-82.9260,4.0,180.0,10.0,-99999.0,'1111122,1111122,1199999999' 
COMPS,ioos:station:USF.COMPS:C10:1,2011-11-02T00:00:00Z,27.1690,-82.9260,4.0,180.0,9.0,-99999.0,'1111122,1111122,1199999999' 
COMPS,ioos:station:USF.COMPS:C10:1,2011-11-02T01:00:00Z,27.1690,-82.9260,4.0,168.69006752598,5.0990195135928,-99999.0,'1111122,1111122,1199999999' 
COMPS,ioos:station:USF.COMPS:C10:1,2011-11-02T02:00:00Z,27.1690,-82.9260,4.0,171.86989764584,7.0710678118655,-99999.0,'1111122,1111122,1199999999' 
COMPS,ioos:station:USF.COMPS:C10:1,2011-11-02T03:00:00Z,27.1690,-82.9260,4.0,203.19859051365,7.6157731058639,-99999.0,'1111122,1111122,1199999999' 
COMPS,ioos:station:USF.COMPS:C10:1,2011-11-02T04:00:00Z,27.1690,-82.9260,4.0,135.0,7.0710678118655,-99999.0,'1111122,1111122,1199999999' 
COMPS,ioos:station:USF.COMPS:C10:1,2011-11-02T05:00:00Z,27.1690,-82.9260,4.0,180.0,5.0,-99999.0,'1111122,1111122,1199999999' 
COMPS,ioos:station:USF.COMPS:C10:1,2011-11-02T06:00:00Z,27.1690,-82.9260,4.0,156.03751102542,9.8488578017961,-99999.0,'1111122,1111122,1199999999' 
COMPS,ioos:station:USF.COMPS:C10:1,2011-11-02T07:00:00Z,27.1690,-82.9260,4.0,153.43494882292,8.9442719099992,-99999.0,'1111122,1111122,1199999999' 
COMPS,ioos:station:USF.COMPS:C10:1,2011-11-02T08:00:00Z,27.1690,-82.9260,4.0,142.1250163489,11.401754250991,-99999.0,'1111122,1111122,1199999999' 
COMPS,ioos:station:USF.COMPS:C10:1,2011-11-02T09:00:00Z,27.1690,-82.9260,4.0,161.56505117708,15.811388300842,-99999.0,'1111122,1111122,1199999999' 
COMPS,ioos:station:USF.COMPS:C10:1,2011-11-02T10:00:00Z,27.1690,-82.9260,4.0,171.86989764584,14.142135623731,-99999.0,'1111122,1111122,1199999999' 
COMPS,ioos:station:USF.COMPS:C10:1,2011-11-02T11:00:00Z,27.1690,-82.9260,4.0,195.94539590092,14.560219778561,-99999.0,'1111122,1111122,1199999999' 
COMPS,ioos:station:USF.COMPS:C10:1,2011-11-02T12:00:00Z,27.1690,-82.9260,4.0,172.40535663141,15.132745950422,-99999.0,'1111122,1111122,1199999999' 
COMPS,ioos:station:USF.COMPS:C10:1,2011-11-02T13:00:00Z,27.1690,-82.9260,4.0,191.30993247402,10.198039027186,-99999.0,'1111122,1111122,1199999999' 
COMPS,ioos:station:USF.COMPS:C10:1,2011-11-02T14:00:00Z,27.1690,-82.9260,4.0,180.0,14.0,-99999.0,'1111122,1111122,1199999999' 
COMPS,ioos:station:USF.COMPS:C10:1,2011-11-02T15:00:00Z,27.1690,-82.9260,4.0,169.69515353123,11.180339887499,-99999.0,'1111122,1111122,1199999999' 
COMPS,ioos:station:USF.COMPS:C10:1,2011-11-02T16:00:00Z,27.1690,-82.9260,4.0,170.53767779197,6.0827625302982,-99999.0,'1111122,1111122,1199999999' 
COMPS,ioos:station:USF.COMPS:C10:1,2011-11-02T17:00:00Z,27.1690,-82.9260,4.0,146.30993247402,7.211102550928,-99999.0,'1111122,1111122,1199999999' 
COMPS,ioos:station:USF.COMPS:C10:1,2011-11-02T18:00:00Z,27.1690,-82.9260,4.0,150.25511870306,8.0622577482985,-99999.0,'1111122,1111122,1199999999' 
COMPS,ioos:station:USF.COMPS:C10:1,2011-11-02T19:00:00Z,27.1690,-82.9260,4.0,150.94539590092,10.295630140987,-99999.0,'1111122,1111122,1199999999' 
COMPS,ioos:station:USF.COMPS:C10:1,2011-11-02T20:00:00Z,27.1690,-82.9260,4.0,145.00797980144,12.206555615734,-99999.0,'1111122,1111122,1199999999' 
COMPS,ioos:station:USF.COMPS:C10:1,2011-11-02T21:00:00Z,27.1690,-82.9260,4.0,157.38013505196,13.0,-99999.0,'1111122,1111122,1199999999' 
COMPS,ioos:station:USF.COMPS:C10:1,2011-11-02T22:00:00Z,27.1690,-82.9260,4.0,167.00538320808,13.341664064126,-99999.0,'1111122,1111122,1199999999' 
COMPS,ioos:station:USF.COMPS:C10:1,2011-11-02T23:00:00Z,27.1690,-82.9260,4.0,162.89727103095,13.601470508735,-99999.0,'1111122,1111122,1199999999' 
COMPS,ioos:station:USF.COMPS:C10:1,2011-11-03T01:00:00Z,27.1690,-82.9260,4.0,155.55604521958,12.083045973595,-99999.0,'1111122,1111122,1199999999' 
COMPS,ioos:station:USF.COMPS:C10:1,2011-11-03T02:00:00Z,27.1690,-82.9260,4.0,218.65980825409,12.806248474866,-99999.0,'1111122,1111122,1199999999' 
COMPS,ioos:station:USF.COMPS:C10:1,2011-11-03T03:00:00Z,27.1690,-82.9260,4.0,233.9726266149,13.601470508735,-99999.0,'1111122,1111122,1199999999' 
COMPS,ioos:station:USF.COMPS:C10:1,2011-11-03T04:00:00Z,27.1690,-82.9260,4.0,218.65980825409,6.4031242374328,-99999.0,'1111122,1111122,1199999999' 
COMPS,ioos:station:USF.COMPS:C10:1,2011-11-03T05:00:00Z,27.1690,-82.9260,4.0,216.86989764584,5.0,-99999.0,'1111122,1111122,1199999999' 
COMPS,ioos:station:USF.COMPS:C10:1,2011-11-03T06:00:00Z,27.1690,-82.9260,4.0,225.0,4.2426406871193,-99999.0,'1111122,1111122,1199999999' 
COMPS,ioos:station:USF.COMPS:C10:1,2011-11-03T07:00:00Z,27.1690,-82.9260,4.0,206.56505117708,2.2360679774998,-99999.0,'1111122,1111122,1199999999' 
COMPS,ioos:station:USF.COMPS:C10:1,2011-11-03T08:00:00Z,27.1690,-82.9260,4.0,120.96375653207,5.8309518948453,-99999.0,'1111122,1111122,1199999999' 
COMPS,ioos:station:USF.COMPS:C10:1,2011-11-03T09:00:00Z,27.1690,-82.9260,4.0,146.30993247402,7.211102550928,-99999.0,'1111122,1111122,1199999999' 
COMPS,ioos:station:USF.COMPS:C10:1,2011-11-03T10:00:00Z,27.1690,-82.9260,4.0,180.0,8.0,-99999.0,'1111122,1111122,1199999999' 
COMPS,ioos:station:USF.COMPS:C10:1,2011-11-03T11:00:00Z,27.1690,-82.9260,4.0,180.0,5.0,-99999.0,'1111122,1111122,1199999999' 
COMPS,ioos:station:USF.COMPS:C10:1,2011-11-03T12:00:00Z,27.1690,-82.9260,4.0,188.13010235416,7.0710678118655,-99999.0,'1111122,1111122,1199999999' 
COMPS,ioos:station:USF.COMPS:C10:1,2011-11-03T13:00:00Z,27.1690,-82.9260,4.0,189.46232220803,6.0827625302982,-99999.0,'1111122,1111122,1199999999' 
COMPS,ioos:station:USF.COMPS:C10:1,2011-11-03T14:00:00Z,27.1690,-82.9260,4.0,206.56505117708,6.7082039324994,-99999.0,'1111122,1111122,1199999999' 
COMPS,ioos:station:USF.COMPS:C10:1,2011-11-03T15:00:00Z,27.1690,-82.9260,4.0,219.80557109227,7.8102496759067,-99999.0,'1111122,1111122,1199999999' 
COMPS,ioos:station:USF.COMPS:C10:1,2011-11-03T16:00:00Z,27.1690,-82.9260,4.0,225.0,4.2426406871193,-99999.0,'1111122,1111122,1199999999' 
COMPS,ioos:station:USF.COMPS:C10:1,2011-11-03T17:00:00Z,27.1690,-82.9260,4.0,243.43494882292,4.4721359549996,-99999.0,'1111122,1111122,1199999999' 
COMPS,ioos:station:USF.COMPS:C10:1,2011-11-03T18:00:00Z,27.1690,-82.9260,4.0,270.0,6.0,-99999.0,'1111122,1111122,1199999999' 
COMPS,ioos:station:USF.COMPS:C10:1,2011-11-03T19:00:00Z,27.1690,-82.9260,4.0,270.0,5.0,-99999.0,'1111122,1111122,1199999999' 
COMPS,ioos:station:USF.COMPS:C10:1,2011-11-03T20:00:00Z,27.1690,-82.9260,4.0,270.0,7.0,-99999.0,'1111122,1111122,1199999999' 
COMPS,ioos:station:USF.COMPS:C10:1,2011-11-03T21:00:00Z,27.1690,-82.9260,4.0,270.0,3.0,-99999.0,'1111122,1111122,1199999999' 
COMPS,ioos:station:USF.COMPS:C10:1,2011-11-03T22:00:00Z,27.1690,-82.9260,4.0,315.0,2.8284271247462,-99999.0,'1111122,1111122,1199999999' 
COMPS,ioos:station:USF.COMPS:C10:1,2011-11-03T23:00:00Z,27.1690,-82.9260,4.0,270.0,1.0,-99999.0,'1113322,1111122,1199999999' 
COMPS,ioos:station:USF.COMPS:C10:1,2011-11-04T00:00:00Z,27.1690,-82.9260,4.0,0.0,0.0,-99999.0,'1114422,1114422,1199999999' 
COMPS,ioos:station:USF.COMPS:C10:1,2011-11-04T01:00:00Z,27.1690,-82.9260,4.0,0.0,0.0,-99999.0,'1114422,1114422,1199999999' 
COMPS,ioos:station:USF.COMPS:C10:1,2011-11-04T02:00:00Z,27.1690,-82.9260,4.0,270.0,3.0,-99999.0,'1111122,1111122,1199999999' 
COMPS,ioos:station:USF.COMPS:C10:1,2011-11-04T03:00:00Z,27.1690,-82.9260,4.0,270.0,4.0,-99999.0,'1111122,1111122,1199999999' 
COMPS,ioos:station:USF.COMPS:C10:1,2011-11-04T04:00:00Z,27.1690,-82.9260,4.0,296.56505117708,4.4721359549996,-99999.0,'1111122,1111122,1199999999' 
COMPS,ioos:station:USF.COMPS:C10:1,2011-11-04T05:00:00Z,27.1690,-82.9260,4.0,333.43494882292,4.4721359549996,-99999.0,'1111122,1111122,1199999999' 
COMPS,ioos:station:USF.COMPS:C10:1,2011-11-04T07:00:00Z,27.1690,-82.9260,4.0,63.434948822922,4.4721359549996,-99999.0,'1111122,1111122,1199999999' 
COMPS,ioos:station:USF.COMPS:C10:1,2011-11-04T08:00:00Z,27.1690,-82.9260,4.0,69.443954780417,8.5440037453175,-99999.0,'1111122,1111122,1199999999' 
COMPS,ioos:station:USF.COMPS:C10:1,2011-11-04T09:00:00Z,27.1690,-82.9260,4.0,80.537677791974,6.0827625302982,-99999.0,'1111122,1111122,1199999999' 
COMPS,ioos:station:USF.COMPS:C10:1,2011-11-04T10:00:00Z,27.1690,-82.9260,4.0,97.125016348902,8.0622577482985,-99999.0,'1111122,1111122,1199999999' 
COMPS,ioos:station:USF.COMPS:C10:1,2011-11-04T12:00:00Z,27.1690,-82.9260,4.0,146.30993247402,10.816653826392,-99999.0,'1111122,1111122,1199999999' 
COMPS,ioos:station:USF.COMPS:C10:1,2011-11-04T13:00:00Z,27.1690,-82.9260,4.0,161.56505117708,6.3245553203368,-99999.0,'1111122,1111122,1199999999' 
COMPS,ioos:station:USF.COMPS:C10:1,2011-11-04T14:00:00Z,27.1690,-82.9260,4.0,171.25383773744,13.152946437966,-99999.0,'1111122,1111122,1199999999' 
COMPS,ioos:station:USF.COMPS:C10:1,2011-11-04T15:00:00Z,27.1690,-82.9260,4.0,164.05460409908,14.560219778561,-99999.0,'1111122,1111122,1199999999' 
COMPS,ioos:station:USF.COMPS:C10:1,2011-11-04T16:00:00Z,27.1690,-82.9260,4.0,164.74488129694,11.401754250991,-99999.0,'1111122,1111122,1199999999' 
COMPS,ioos:station:USF.COMPS:C10:1,2011-11-04T17:00:00Z,27.1690,-82.9260,4.0,167.47119229085,9.2195444572929,-99999.0,'1111122,1111122,1199999999' 
COMPS,ioos:station:USF.COMPS:C10:1,2011-11-04T18:00:00Z,27.1690,-82.9260,4.0,180.0,13.0,-99999.0,'1111122,1111122,1199999999' 
COMPS,ioos:station:USF.COMPS:C10:1,2011-11-04T19:00:00Z,27.1690,-82.9260,4.0,164.74488129694,11.401754250991,-99999.0,'1111122,1111122,1199999999' 
COMPS,ioos:station:USF.COMPS:C10:1,2011-11-04T20:00:00Z,27.1690,-82.9260,4.0,145.30484646877,15.811388300842,-99999.0,'1111122,1111122,1199999999' 
COMPS,ioos:station:USF.COMPS:C10:1,2011-11-04T21:00:00Z,27.1690,-82.9260,4.0,150.25511870306,16.124515496597,-99999.0,'1111122,1111122,1199999999' 
COMPS,ioos:station:USF.COMPS:C10:1,2011-11-04T22:00:00Z,27.1690,-82.9260,4.0,155.22485943117,14.317821063276,-99999.0,'1111122,1111122,1199999999' 
COMPS,ioos:station:USF.COMPS:C10:1,2011-11-04T23:00:00Z,27.1690,-82.9260,4.0,153.43494882292,20.124611797498,-99999.0,'1111122,1111122,1199999999' 
COMPS,ioos:station:USF.COMPS:C10:1,2011-11-05T00:00:00Z,27.1690,-82.9260,4.0,150.94539590092,20.591260281974,-99999.0,'1111122,1111122,1199999999' 
COMPS,ioos:station:USF.COMPS:C10:1,2011-11-05T01:00:00Z,27.1690,-82.9260,4.0,149.53445508054,19.723082923316,-99999.0,'1111122,1111122,1199999999' 
COMPS,ioos:station:USF.COMPS:C10:1,2011-11-05T02:00:00Z,27.1690,-82.9260,4.0,168.11134196037,19.416487838948,-99999.0,'1111122,1111122,1199999999' 
COMPS,ioos:station:USF.COMPS:C10:1,2011-11-05T03:00:00Z,27.1690,-82.9260,4.0,176.423665625,16.031219541881,-99999.0,'1111122,1111122,1199999999' 
COMPS,ioos:station:USF.COMPS:C10:1,2011-11-05T04:00:00Z,27.1690,-82.9260,4.0,170.53767779197,18.248287590895,-99999.0,'1111122,1111122,1199999999' 
COMPS,ioos:station:USF.COMPS:C10:1,2011-11-05T05:00:00Z,27.1690,-82.9260,4.0,172.40535663141,15.132745950422,-99999.0,'1111122,1111122,1199999999' 
COMPS,ioos:station:USF.COMPS:C10:1,2011-11-05T06:00:00Z,27.1690,-82.9260,4.0,172.40535663141,15.132745950422,-99999.0,'1111122,1111122,1199999999' 
COMPS,ioos:station:USF.COMPS:C10:1,2011-11-05T07:00:00Z,27.1690,-82.9260,4.0,156.80140948635,15.231546211728,-99999.0,'1111122,1111122,1199999999' 
COMPS,ioos:station:USF.COMPS:C10:1,2011-11-05T08:00:00Z,27.1690,-82.9260,4.0,150.64224645721,18.357559750686,-99999.0,'1111122,1111122,1199999999' 
COMPS,ioos:station:USF.COMPS:C10:1,2011-11-05T09:00:00Z,27.1690,-82.9260,4.0,147.99461679192,18.867962264113,-99999.0,'1111122,1111122,1199999999' 
COMPS,ioos:station:USF.COMPS:C10:1,2011-11-05T10:00:00Z,27.1690,-82.9260,4.0,145.49147701233,19.416487838948,-99999.0,'1111122,1111122,1199999999' 
COMPS,ioos:station:USF.COMPS:C10:1,2011-11-05T11:00:00Z,27.1690,-82.9260,4.0,149.53445508054,19.723082923316,-99999.0,'1111122,1111122,1199999999' 
COMPS,ioos:station:USF.COMPS:C10:1,2011-11-05T12:00:00Z,27.1690,-82.9260,4.0,156.80140948635,15.231546211728,-99999.0,'1111122,1111122,1199999999' 
COMPS,ioos:station:USF.COMPS:C10:1,2011-11-05T14:00:00Z,27.1690,-82.9260,4.0,149.03624346793,17.492855684536,-99999.0,'1111122,1111122,1199999999' 
COMPS,ioos:station:USF.COMPS:C10:1,2011-11-05T15:00:00Z,27.1690,-82.9260,4.0,160.55996517182,18.02775637732,-99999.0,'1111122,1111122,1199999999' 
COMPS,ioos:station:USF.COMPS:C10:1,2011-11-05T16:00:00Z,27.1690,-82.9260,4.0,169.99202019856,17.262676501632,-99999.0,'1111122,1111122,1199999999' 
COMPS,ioos:station:USF.COMPS:C10:1,2011-11-05T17:00:00Z,27.1690,-82.9260,4.0,173.29016319224,17.117242768624,-99999.0,'1111122,1111122,1199999999' 
COMPS,ioos:station:USF.COMPS:C10:1,2011-11-05T18:00:00Z,27.1690,-82.9260,4.0,173.29016319224,17.117242768624,-99999.0,'1111122,1111122,1199999999' 
COMPS,ioos:station:USF.COMPS:C10:1,2011-11-05T19:00:00Z,27.1690,-82.9260,4.0,165.96375653207,16.492422502471,-99999.0,'1111122,1111122,1199999999' 
COMPS,ioos:station:USF.COMPS:C10:1,2011-11-05T20:00:00Z,27.1690,-82.9260,4.0,161.56505117708,15.811388300842,-99999.0,'1111122,1111122,1199999999' 
COMPS,ioos:station:USF.COMPS:C10:1,2011-11-05T21:00:00Z,27.1690,-82.9260,4.0,135.0,12.727922061358,-99999.0,'1111122,1111122,1199999999' 
COMPS,ioos:station:USF.COMPS:C10:1,2011-11-05T22:00:00Z,27.1690,-82.9260,4.0,158.96248897458,13.928388277184,-99999.0,'1111122,1111122,1199999999' 
COMPS,ioos:station:USF.COMPS:C10:1,2011-11-05T23:00:00Z,27.1690,-82.9260,4.0,158.96248897458,13.928388277184,-99999.0,'1111122,1111122,1199999999' 
COMPS,ioos:station:USF.COMPS:C10:1,2011-11-06T00:00:00Z,27.1690,-82.9260,4.0,157.38013505196,13.0,-99999.0,'1111122,1111122,1199999999' 
COMPS,ioos:station:USF.COMPS:C10:1,2011-11-06T01:00:00Z,27.1690,-82.9260,4.0,172.40535663141,15.132745950422,-99999.0,'1111122,1111122,1199999999' 
COMPS,ioos:station:USF.COMPS:C10:1,2011-11-06T02:00:00Z,27.1690,-82.9260,4.0,180.0,17.0,-99999.0,'1111122,1111122,1199999999' 
COMPS,ioos:station:USF.COMPS:C10:1,2011-11-06T03:00:00Z,27.1690,-82.9260,4.0,180.0,19.0,-99999.0,'1111122,1111122,1199999999' 
COMPS,ioos:station:USF.COMPS:C10:1,2011-11-06T04:00:00Z,27.1690,-82.9260,4.0,192.99461679192,13.341664064126,-99999.0,'1111122,1111122,1199999999' 
COMPS,ioos:station:USF.COMPS:C10:1,2011-11-06T05:00:00Z,27.1690,-82.9260,4.0,188.74616226256,13.152946437966,-99999.0,'1111122,1111122,1199999999' 
COMPS,ioos:station:USF.COMPS:C10:1,2011-11-06T06:00:00Z,27.1690,-82.9260,4.0,196.69924423399,10.440306508911,-99999.0,'1111122,1111122,1199999999' 
COMPS,ioos:station:USF.COMPS:C10:1,2011-11-06T07:00:00Z,27.1690,-82.9260,4.0,169.69515353123,11.180339887499,-99999.0,'1111122,1111122,1199999999' 
COMPS,ioos:station:USF.COMPS:C10:1,2011-11-06T09:00:00Z,27.1690,-82.9260,4.0,163.30075576601,10.440306508911,-99999.0,'1111122,1111122,1199999999' 
COMPS,ioos:station:USF.COMPS:C10:1,2011-11-06T10:00:00Z,27.1690,-82.9260,4.0,153.43494882292,11.180339887499,-99999.0,'1111122,1111122,1199999999' 
COMPS,ioos:station:USF.COMPS:C10:1,2011-11-06T11:00:00Z,27.1690,-82.9260,4.0,161.56505117708,15.811388300842,-99999.0,'1111122,1111122,1199999999' 
COMPS,ioos:station:USF.COMPS:C10:1,2011-11-06T13:00:00Z,27.1690,-82.9260,4.0,153.43494882292,13.416407864999,-99999.0,'1111122,1111122,1199999999' 
COMPS,ioos:station:USF.COMPS:C10:1,2011-11-06T14:00:00Z,27.1690,-82.9260,4.0,167.00538320808,13.341664064126,-99999.0,'1111122,1111122,1199999999' 
COMPS,ioos:station:USF.COMPS:C10:1,2011-11-06T15:00:00Z,27.1690,-82.9260,4.0,172.40535663141,15.132745950422,-99999.0,'1111122,1111122,1199999999' 
COMPS,ioos:station:USF.COMPS:C10:1,2011-11-06T16:00:00Z,27.1690,-82.9260,4.0,190.61965527616,16.2788205961,-99999.0,'1111122,1111122,1199999999' 
COMPS,ioos:station:USF.COMPS:C10:1,2011-11-06T17:00:00Z,27.1690,-82.9260,4.0,186.70983680776,17.117242768624,-99999.0,'1111122,1111122,1199999999' 
COMPS,ioos:station:USF.COMPS:C10:1,2011-11-06T18:00:00Z,27.1690,-82.9260,4.0,199.29004621919,21.189620100417,-99999.0,'1111122,1111122,1199999999' 
COMPS,ioos:station:USF.COMPS:C10:1,2011-11-06T19:00:00Z,27.1690,-82.9260,4.0,197.35402463626,16.76305461424,-99999.0,'1111122,1111122,1199999999' 
COMPS,ioos:station:USF.COMPS:C10:1,2011-11-06T20:00:00Z,27.1690,-82.9260,4.0,190.61965527616,16.2788205961,-99999.0,'1111122,1111122,1199999999' 
COMPS,ioos:station:USF.COMPS:C10:1,2011-11-06T21:00:00Z,27.1690,-82.9260,4.0,186.70983680776,17.117242768624,-99999.0,'1111122,1111122,1199999999' 
COMPS,ioos:station:USF.COMPS:C10:1,2011-11-06T22:00:00Z,27.1690,-82.9260,4.0,180.0,14.0,-99999.0,'1111122,1111122,1199999999' 
COMPS,ioos:station:USF.COMPS:C10:1,2011-11-06T23:00:00Z,27.1690,-82.9260,4.0,180.0,10.0,-99999.0,'1111122,1111122,1199999999' 
COMPS,ioos:station:USF.COMPS:C10:1,2011-11-07T00:00:00Z,27.1690,-82.9260,4.0,195.25511870306,11.401754250991,-99999.0,'1111122,1111122,1199999999' 
COMPS,ioos:station:USF.COMPS:C10:1,2011-11-07T01:00:00Z,27.1690,-82.9260,4.0,180.0,10.0,-99999.0,'1111122,1111122,1199999999' 
COMPS,ioos:station:USF.COMPS:C10:1,2011-11-07T02:00:00Z,27.1690,-82.9260,4.0,175.23635830927,12.041594578792,-99999.0,'1111122,1111122,1199999999' 
COMPS,ioos:station:USF.COMPS:C10:1,2011-11-07T03:00:00Z,27.1690,-82.9260,4.0,184.398705355,13.038404810405,-99999.0,'1111122,1111122,1199999999' 
COMPS,ioos:station:USF.COMPS:C10:1,2011-11-07T04:00:00Z,27.1690,-82.9260,4.0,180.0,9.0,-99999.0,'1111122,1111122,1199999999' 
COMPS,ioos:station:USF.COMPS:C10:1,2011-11-07T05:00:00Z,27.1690,-82.9260,4.0,191.30993247402,10.198039027186,-99999.0,'1111122,1111122,1199999999' 
COMPS,ioos:station:USF.COMPS:C10:1,2011-11-07T06:00:00Z,27.1690,-82.9260,4.0,201.80140948635,5.3851648071345,-99999.0,'1111122,1111122,1199999999' 
COMPS,ioos:station:USF.COMPS:C10:1,2011-11-07T07:00:00Z,27.1690,-82.9260,4.0,189.46232220803,6.0827625302982,-99999.0,'1111122,1111122,1199999999' 
COMPS,ioos:station:USF.COMPS:C10:1,2011-11-07T08:00:00Z,27.1690,-82.9260,4.0,225.0,4.2426406871193,-99999.0,'1111122,1111122,1199999999' 
COMPS,ioos:station:USF.COMPS:C10:1,2011-11-07T09:00:00Z,27.1690,-82.9260,4.0,191.30993247402,5.0990195135928,-99999.0,'1111122,1111122,1199999999' 
COMPS,ioos:station:USF.COMPS:C10:1,2011-11-07T10:00:00Z,27.1690,-82.9260,4.0,119.05460409908,10.295630140987,-99999.0,'1111122,1111122,1199999999' 
COMPS,ioos:station:USF.COMPS:C10:1,2011-11-07T11:00:00Z,27.1690,-82.9260,4.0,111.80140948635,10.770329614269,-99999.0,'1111122,1111122,1199999999' 
COMPS,ioos:station:USF.COMPS:C10:1,2011-11-07T12:00:00Z,27.1690,-82.9260,4.0,156.03751102542,9.8488578017961,-99999.0,'1111122,1111122,1199999999' 
COMPS,ioos:station:USF.COMPS:C10:1,2011-11-07T13:00:00Z,27.1690,-82.9260,4.0,150.25511870306,8.0622577482985,-99999.0,'1111122,1111122,1199999999' 
COMPS,ioos:station:USF.COMPS:C10:1,2011-11-07T14:00:00Z,27.1690,-82.9260,4.0,156.03751102542,9.8488578017961,-99999.0,'1111122,1111122,1199999999' 
COMPS,ioos:station:USF.COMPS:C10:1,2011-11-07T15:00:00Z,27.1690,-82.9260,4.0,171.86989764584,7.0710678118655,-99999.0,'1111122,1111122,1199999999' 
COMPS,ioos:station:USF.COMPS:C10:1,2011-11-07T16:00:00Z,27.1690,-82.9260,4.0,180.0,9.0,-99999.0,'1111122,1111122,1199999999' 
COMPS,ioos:station:USF.COMPS:C10:1,2011-11-07T17:00:00Z,27.1690,-82.9260,4.0,201.80140948635,10.770329614269,-99999.0,'1111122,1111122,1199999999' 
COMPS,ioos:station:USF.COMPS:C10:1,2011-11-07T18:00:00Z,27.1690,-82.9260,4.0,202.61986494804,13.0,-99999.0,'1111122,1111122,1199999999' 
COMPS,ioos:station:USF.COMPS:C10:1,2011-11-07T19:00:00Z,27.1690,-82.9260,4.0,214.99202019856,12.206555615734,-99999.0,'1111122,1111122,1199999999' 
COMPS,ioos:station:USF.COMPS:C10:1,2011-11-07T20:00:00Z,27.1690,-82.9260,4.0,215.53767779197,8.6023252670426,-99999.0,'1111122,1111122,1199999999' 
COMPS,ioos:station:USF.COMPS:C10:1,2011-11-07T22:00:00Z,27.1690,-82.9260,4.0,210.96375653207,5.8309518948453,-99999.0,'1111122,1111122,1199999999' 
COMPS,ioos:station:USF.COMPS:C10:1,2011-11-07T23:00:00Z,27.1690,-82.9260,4.0,210.96375653207,5.8309518948453,-99999.0,'1111122,1111122,1199999999' 
COMPS,ioos:station:USF.COMPS:C10:1,2011-11-08T00:00:00Z,27.1690,-82.9260,4.0,210.96375653207,5.8309518948453,-99999.0,'1111122,1111122,1199999999' 
COMPS,ioos:station:USF.COMPS:C10:1,2011-11-08T01:00:00Z,27.1690,-82.9260,4.0,210.96375653207,5.8309518948453,-99999.0,'1111122,1111122,1199999999' 
COMPS,ioos:station:USF.COMPS:C10:1,2011-11-08T02:00:00Z,27.1690,-82.9260,4.0,230.19442890773,7.8102496759067,-99999.0,'1111122,1111122,1199999999' 
COMPS,ioos:station:USF.COMPS:C10:1,2011-11-08T03:00:00Z,27.1690,-82.9260,4.0,236.30993247402,7.211102550928,-99999.0,'1111122,1111122,1199999999' 
COMPS,ioos:station:USF.COMPS:C10:1,2011-11-08T04:00:00Z,27.1690,-82.9260,4.0,230.19442890773,7.8102496759067,-99999.0,'1111122,1111122,1199999999' 
COMPS,ioos:station:USF.COMPS:C10:1,2011-11-08T05:00:00Z,27.1690,-82.9260,4.0,259.69515353123,11.180339887499,-99999.0,'1111122,1111122,1199999999' 
COMPS,ioos:station:USF.COMPS:C10:1,2011-11-08T06:00:00Z,27.1690,-82.9260,4.0,254.74488129694,11.401754250991,-99999.0,'1111122,1111122,1199999999' 
COMPS,ioos:station:USF.COMPS:C10:1,2011-11-08T07:00:00Z,27.1690,-82.9260,4.0,264.2894068625,10.049875621121,-99999.0,'1111122,1111122,1199999999' 